星链-5962 (STARLINK-5962 )

导读 | 豆包AI

STARLINK-5962是美国SpaceX公司星链项目的低轨通信卫星,于2023年3月24日发射升空,属于星链第二代星座的V1.5批次卫星。这类卫星配备激光星间链路,采用紧凑型平板设计,重量约295公斤,运行在340-614公里近地轨道,主要为全球提供高速宽带互联网服务,可降低对地面基站依赖,扩展高纬度与偏远区域网络覆盖,是目前星链星座中占比最高的卫星类型。

基本信息
目录编号:
55992
目录名称:
STARLINK-5962
国际标识:
2023-042G
轨道中心:
EARTH
卫星名称:
星链-5962
卫星全名:
星链-5962 (STARLINK-5962 )
卫星状态:
已陨落 最后检测时间 2024-12-24
发射日期:
2023-03-24 UTC
国别 :
美国 (US)
星等 :
--
轨道信息
数据来源 国际轨道数据
星历时间: 2024-12-24T11:00:25+0800
轨道信息已过期492天
半长轴: 6533.105km
偏心率: 0.0006242
轨道倾角: 42.982°
近地点辐角 151.131°
升交点赤经 262.393°
平近点角 265.978°
近地点: 150.892km
远地点: 159.048km
周期: 87.587分钟
每日圈数: 16.440817
详细信息
固有亮度:
5
最大亮度:
2.5
卫星平台:
Starlink v1.5
覆盖范围:
全球
运营商:
太空探索技术公司
运营商所在国:
美国
制造商(研发单位):
太空探索技术公司
制造商所在国:
美国
使用方式:
暂无
卫星简介
星链(Starlink)计划是由太空探索技术公司(SpaceX)提出的一个巨型低轨卫星互联网星座项目,计划在2019年至2024年间在太空搭建由约1.2万颗卫星组成的“星链”网络,其中1584颗将部署在地球上空550千米处的近地轨道,并从2020年开始工作。该卫星仍在工作。